sat.trackr.live / text

‹ back to catalog

STARLINK-31189

NORAD 58787 · 2024-012A

PAYLOAD ACTIVE UNKNOWN

§ Identity

Operator
Country
US
Launch date
2024-01-15
Launch site
AFETR
Launch vehicle
Mass (kg)
RCS (m²)

Purposes: comms

External: N2YO · Heavens-Above · Gunter

§ Orbital elements

Epoch: 2026-05-25T03:34:12.901152Z

Period
94.27 min
Inclination
43.0015°
Eccentricity
0.0000909
Mean motion
15.27570260 rev/d
Perigee alt
482.5 km
Apogee alt
483.7 km
Semi-major
6,861.2 km
B*
1.2043e-4
RAAN
93.0861°
Arg perigee
255.8035°
Mean anomaly
104.2716°
Rev number
13,293

§ Raw data

STARLINK-311891 58787U 24012A   26145.14876043  .00003053  00000+0  12043-3 0  99982 58787  43.0015  93.0861 0000909 255.8035 104.2716 15.27570260132937

JSON: /api/v1/satellites/58787 · /tle

For live sub-satellite position, see the globe view (requires WebGL).

§ Visibility from observer

Set your observer location to see the next 7 days of passes ≥ 10°. The values pass through the URL so the page stays shareable.

No JS? Fill the form by hand. The geolocation button needs JavaScript.